Regional Weather Roundup
Issued by NWS State College, PA

Home | Current Version | Previous Version | Text Only | Print | Product List | Glossary On
Versions: 1 2 3 4 5 6 7 8 9 10 11 12 13 14 15 16 17 18 19 20 21 22 23 24 25 26 27 28 29 30 31 32 33 34 35 36 37 38 39 40 41 42 43 44 45 46 47 48 49 50
000
ASUS41 KCTP 032310
RWRCTP

REGIONAL WEATHER ROUNDUP
NATIONAL WEATHER SERVICE STATE COLLEGE PA
700 PM EDT TUE MAY 03 2016

Note: "fair" indicates few or no clouds below 12,000 feet with no
significant weather and/or obstructions to visibility.

* = STATION THAT DOES NOT REPORT PRECIPITATION /E.G. RAIN...SNOW...ETC/
    THUNDER OR FOG.

PAZ002>004-007>009-013>016-020>023-029>032-040000-
WESTERN PENNSYLVANIA

CITY           SKY/WX    TMP DP  RH WIND       PRES   REMARKS
ERIE           SUNNY     49  41  74 W7        29.83F
MEADVILLE      PTSUNNY   53  39  59 NW6       29.81R
FRANKLIN*      CLOUDY    55  39  54 NW7       29.81S
NEW CASTLE     CLOUDY    58  41  53 N7        29.81R
BEAVER COUNTY  PTSUNNY   59  41  51 W7        29.80R
BUTLER*        CLOUDY    59  43  55 W3        29.82S
PITTSBURGH INT CLOUDY    60  40  47 W12       29.79S
PITTSBURGH     CLOUDY    60  41  49 VRB3      29.79R
INDIANA*       PTSUNNY   61  43  51 W9        29.81S
LATROBE        CLOUDY    59  48  67 S8        29.80R
WASHINGTON CO* CLOUDY    59  43  55 W3        29.81S
$$

PAZ004>006-010>012-017>019-024>028-033>037-041-042-045-046-049>053-040000-
CENTRAL PENNSYLVANIA

CITY           SKY/WX    TMP DP  RH WIND       PRES   REMARKS
BRADFORD       CLOUDY    48  43  82 N9        29.80R
DUBOIS         PTSUNNY   56  38  50 W9        29.77R
CLEARFIELD     PTSUNNY   60  38  43 W9        29.76S
JOHNSTOWN      CLOUDY    56  40  55 W8        29.78S
ALTOONA        PTSUNNY   61  43  51 NW8       29.77S
STATE COLLEGE  CLOUDY    59  50  72 NE6       29.76S
WILLIAMSPORT   PTSUNNY   57  47  69 E3        29.78S
SELINSGROVE    CLOUDY    57  50  77 N6        29.80R
FT INDIANTOWN  PTSUNNY   59  55  88 E7        29.78S
CAPITAL CITY   CLOUDY    62  52  69 E8        29.77S
HARRISBURG     PTSUNNY   60  53  77 SE10      29.77R
YORK           PTSUNNY   61  54  77 E7        29.77S
$$

PAZ038>040-043-044-047-048-054-055-060>062-067>071-040000-
EASTERN PENNSYLVANIA

CITY           SKY/WX    TMP DP  RH WIND       PRES   REMARKS
SCRANTON       LGT RAIN  50  49  96 CALM      29.80S FOG
MOUNT POCONO   CLOUDY    48  46  93 SE5       29.80R FOG
ALLENTOWN      CLOUDY    56  51  84 E6        29.81S
QUAKERTOWN*    CLOUDY    55  54  94 SE5       29.82S
READING        CLOUDY    58  51  78 CALM      29.79S
LANCASTER      MOSUNNY   58  53  84 E8        29.79S
COATESVILLE    CLOUDY    55 N/A N/A CALM      29.81S
POTTSTOWN      CLOUDY    55  53  93 E3        29.82S
BLUE BELL      CLOUDY    54  52  94 E3        29.81R
DOYLESTOWN     CLOUDY    53  52  96 CALM      29.81R FOG
WILLOW GROVE   NOT AVBL
NORTH PHILA    CLOUDY    57  52  83 E7        29.84R
PHILADELPHIA   CLOUDY    57  51  80 E7        29.82R
$$




USA.gov is the U.S. government's official web portal to all federal, state and local government web resources and services.